Flag for U.S.A. Weather past 2 weeks in Pomona, California, U.S.A.

Now
51 °F

Fog.


Feels Like: 51 °F
Forecast: 55 / 82 °F
Wind: No wind

Location: Chino Airport


UV Index: 5 (Moderate)

Visibility: 3 mi


Pressure: 30.05 "Hg

Humidity: 100%

Dew point: 51 °F

Location of PomonaLocation

Historic Weather in Pomona

°F

Pomona temperature yesterday

Maximum temperature yesterday: 79 °F (at 1:53 PM)
Minimum temperature yesterday: 51 °F (at 5:53 AM)
Average temperature yesterday: 64 °F

Past Weeks' High & Low Weather Summary

 TemperatureHumidityPressure
High94 °F (Apr 8, 2:53 PM)100% (Apr 16, 5:53 AM)30.12 "Hg (Apr 16, 5:53 AM)
Low42 °F (Apr 6, 5:53 AM)6% (Apr 9, 3:53 PM)29.77 "Hg (Apr 16, 3:53 PM)
Average65 °F57%29.96 "Hg
* Reported Apr 5 6:53 AM — Apr 20 6:53 AM, Pomona, Weather by CustomWeather, © 2014

Note: Actual official high and low records may vary slightly from our data, if they occured in-between our weather recording intervals... More about our weather records

Advertising

Historic Weather Conditions — Data for Previous 24 hours

 ConditionsComfort  
Time TempWeatherWind HumidityBarometerVisibility
6:53 AM
Apr 20
51 °FFog.No wind100%30.05 "Hg3 mi
5:53 AM49 °FFog.3 mph100%30.03 "Hg4 mi
4:53 AM53 °FFog.No wind96%30.03 "Hg5 mi
3:53 AM51 °FFog.5 mph96%30.04 "Hg5 mi
2:53 AM56 °FFog.No wind90%30.03 "Hg6 mi
1:53 AM56 °FClear.No wind90%30.03 "Hg7 mi
12:53 AM55 °FClear.3 mph90%30.04 "Hg7 mi
11:53 PM
Apr 19
58 °FClear.3 mph81%30.05 "Hg7 mi
10:53 PM57 °FClear.3 mph83%30.04 "Hg6 mi
9:53 PM61 °FClear.No wind75%30.03 "Hg8 mi
8:53 PM63 °FClear.8 mph73%30.01 "Hg8 mi
7:53 PM65 °FPassing clouds.12 mph63%29.99 "Hg10 mi
6:53 PM70 °FPassing clouds.13 mph57%29.96 "Hg10 mi
5:53 PM74 °FScattered clouds.15 mph50%29.96 "Hg10 mi
4:53 PM77 °FScattered clouds.14 mph44%29.94 "Hg10 mi
3:53 PM78 °FScattered clouds.14 mph42%29.94 "Hg10 mi
2:53 PM79 °FScattered clouds.14 mph42%29.95 "Hg7 mi
1:53 PM79 °FPassing clouds.12 mph42%29.97 "Hg7 mi
12:53 PM76 °FScattered clouds.10 mph45%29.98 "Hg10 mi
11:53 AM74 °FPassing clouds.8 mph52%29.99 "Hg7 mi
10:53 AM69 °FPartly sunny.5 mph59%30.00 "Hg7 mi
9:53 AM65 °FScattered clouds.3 mph68%29.99 "Hg10 mi
8:53 AM62 °FSunny.No wind73%29.98 "Hg7 mi
Weather by CustomWeather, © 2014

See weather overview